When you browse on this site, cookies collect data to enhance your experience and personalize the content and advertising you see.
Visit our Privacy Policy to learn more. By continuing to use the site, you agree to this use of cookies and data.
  • In France
  • List of Countries
  • For 7 days
  • Water Temperature
  • Weather Map
  • Weather Widgets
  • user-avatar
    Login

    Hourly Weather Khartoum

    Today, 22 August, Thursday

    Time Temperature Precipitation Wind Pressure Humidity
    00:00 +36°C° 0 mm 3 mps 724 mmHg 50%
    01:00 +35°C° 0 mm 3 mps 724 mmHg 52%
    02:00 +35°C° 0 mm 4 mps 723 mmHg 57%
    03:00 +34°C° 0.1 mm 4 mps 723 mmHg 60%
    04:00 +33°C° 0.1 mm 5 mps 724 mmHg 64%
    05:00 +33°C° 0.1 mm 5 mps 724 mmHg 67%
    06:00 +32°C° 4 mm 6 mps 724 mmHg 70%
    07:00 +30°C° 4 mm 7 mps 724 mmHg 72%
    08:00 +29°C° 0 mm 6 mps 724 mmHg 76%
    09:00 +30°C° 1.2 mm 6 mps 725 mmHg 70%
    10:00 +32°C° 1.2 mm 7 mps 725 mmHg 63%
    11:00 +33°C° 1.2 mm 7 mps 726 mmHg 57%
    12:00 +34°C° 0 mm 7 mps 725 mmHg 54%
    13:00 +35°C° 0 mm 7 mps 724 mmHg 51%
    14:00 +36°C° 0 mm 7 mps 724 mmHg 48%
    15:00 +36°C° 0 mm 7 mps 724 mmHg 49%
    16:00 +37°C° 0 mm 8 mps 723 mmHg 50%
    17:00 +35°C° 0 mm 8 mps 723 mmHg 51%
    18:00 +35°C° 0 mm 8 mps 723 mmHg 53%
    19:00 +34°C° 0 mm 8 mps 724 mmHg 55%
    20:00 +33°C° 0 mm 7 mps 724 mmHg 58%
    21:00 +33°C° 0 mm 7 mps 724 mmHg 58%
    22:00 +33°C° 0 mm 6 mps 724 mmHg 58%
    23:00 +32°C° 0 mm 5 mps 724 mmHg 59%

    Tomorrow, 23 August, Friday

    Time Temperature Precipitation Wind Pressure Humidity
    00:00 +32°C° 0 mm 5 mps 724 mmHg 59%
    01:00 +32°C° 0 mm 5 mps 724 mmHg 59%
    02:00 +30°C° 0 mm 6 mps 724 mmHg 58%
    03:00 +29°C° 0.2 mm 7 mps 725 mmHg 64%
    04:00 +28°C° 0.2 mm 9 mps 725 mmHg 69%
    05:00 +27°C° 0.2 mm 11 mps 725 mmHg 74%
    06:00 +27°C° 0 mm 10 mps 726 mmHg 70%
    07:00 +28°C° 0 mm 9 mps 726 mmHg 65%
    08:00 +29°C° 0 mm 9 mps 726 mmHg 61%
    09:00 +31°C° 0 mm 8 mps 726 mmHg 55%
    10:00 +33°C° 0 mm 8 mps 726 mmHg 49%
    11:00 +35°C° 0 mm 8 mps 727 mmHg 44%
    12:00 +35°C° 0 mm 8 mps 726 mmHg 42%
    13:00 +36°C° 0 mm 7 mps 726 mmHg 40%
    14:00 +38°C° 0 mm 7 mps 725 mmHg 39%
    15:00 +38°C° 0 mm 7 mps 725 mmHg 39%
    16:00 +38°C° 0 mm 6 mps 725 mmHg 39%
    17:00 +38°C° 0 mm 6 mps 724 mmHg 40%
    18:00 +36°C° 0 mm 5 mps 725 mmHg 42%
    19:00 +35°C° 0 mm 4 mps 725 mmHg 44%
    20:00 +35°C° 0 mm 3 mps 726 mmHg 46%
    21:00 +34°C° 0 mm 4 mps 726 mmHg 50%
    22:00 +33°C° 0 mm 6 mps 726 mmHg 54%
    23:00 +32°C° 0 mm 7 mps 726 mmHg 58%

    Day after tomorrow, 24 August, Saturday

    Time Temperature Precipitation Wind Pressure Humidity
    00:00 +30°C° 0 mm 7 mps 726 mmHg 60%
    01:00 +30°C° 0 mm 7 mps 725 mmHg 62%
    02:00 +30°C° 0 mm 7 mps 725 mmHg 64%
    03:00 +29°C° 0 mm 7 mps 725 mmHg 67%
    04:00 +29°C° 0 mm 7 mps 726 mmHg 70%
    05:00 +28°C° 0 mm 7 mps 726 mmHg 73%
    06:00 +28°C° 0.3 mm 8 mps 726 mmHg 72%
    07:00 +29°C° 0.3 mm 8 mps 727 mmHg 70%
    08:00 +29°C° 0.3 mm 8 mps 728 mmHg 69%
    09:00 +30°C° 0.4 mm 7 mps 728 mmHg 65%
    10:00 +32°C° 0.4 mm 7 mps 728 mmHg 60%
    11:00 +34°C° 0.4 mm 7 mps 728 mmHg 55%
    12:00 +35°C° 0 mm 7 mps 727 mmHg 51%
    13:00 +36°C° 0 mm 6 mps 727 mmHg 47%
    14:00 +38°C° 0 mm 6 mps 726 mmHg 43%
    15:00 +37°C° 0 mm 5 mps 726 mmHg 41%
    16:00 +37°C° 0 mm 5 mps 725 mmHg 40%
    17:00 +37°C° 0 mm 4 mps 725 mmHg 38%
    18:00 +36°C° 0 mm 4 mps 725 mmHg 40%
    19:00 +36°C° 0 mm 3 mps 726 mmHg 42%
    20:00 +35°C° 0 mm 3 mps 726 mmHg 44%
    21:00 +35°C° 0 mm 3 mps 726 mmHg 46%
    22:00 +35°C° 0 mm 3 mps 726 mmHg 47%
    23:00 +34°C° 0 mm 3 mps 727 mmHg 48%

    25 August, Sunday

    Time Temperature Precipitation Wind Pressure Humidity
    00:00 +32°C° 0.2 mm 2 mps 726 mmHg 51%
    01:00 +32°C° 0.2 mm 2 mps 726 mmHg 54%
    02:00 +31°C° 0.2 mm 1 mps 726 mmHg 57%
    03:00 +30°C° 0 mm 3 mps 726 mmHg 60%
    04:00 +30°C° 0 mm 4 mps 726 mmHg 62%
    05:00 +29°C° 0 mm 6 mps 726 mmHg 65%
    06:00 +30°C° 0 mm 6 mps 726 mmHg 63%
    07:00 +30°C° 0 mm 6 mps 727 mmHg 61%
    08:00 +30°C° 0 mm 7 mps 727 mmHg 60%
    09:00 +33°C° 0 mm 6 mps 727 mmHg 55%
    10:00 +34°C° 0 mm 5 mps 727 mmHg 51%
    11:00 +35°C° 0 mm 5 mps 727 mmHg 47%
    12:00 +36°C° 0 mm 4 mps 727 mmHg 44%
    13:00 +37°C° 0 mm 4 mps 726 mmHg 41%
    14:00 +37°C° 0 mm 3 mps 725 mmHg 39%
    15:00 +38°C° 0 mm 3 mps 725 mmHg 37%
    16:00 +38°C° 0 mm 2 mps 724 mmHg 36%
    17:00 +38°C° 0 mm 2 mps 724 mmHg 34%
    18:00 +37°C° 0 mm 1 mps 724 mmHg 36%
    19:00 +36°C° 0 mm 1 mps 725 mmHg 38%
    20:00 +36°C° 0 mm 1 mps 725 mmHg 40%
    21:00 +36°C° 0 mm 1 mps 725 mmHg 41%
    22:00 +36°C° 0 mm 2 mps 725 mmHg 41%
    23:00 +36°C° 0 mm 2 mps 725 mmHg 42%

    26 August, Monday

    Time Temperature Precipitation Wind Pressure Humidity
    00:00 +35°C° 0 mm 3 mps 725 mmHg 43%
    01:00 +35°C° 0 mm 4 mps 725 mmHg 44%
    02:00 +34°C° 0 mm 5 mps 724 mmHg 46%
    03:00 +34°C° 0 mm 5 mps 725 mmHg 49%
    04:00 +33°C° 0 mm 6 mps 725 mmHg 52%
    05:00 +32°C° 0 mm 6 mps 725 mmHg 55%
    06:00 +32°C° 0 mm 7 mps 726 mmHg 55%
    07:00 +32°C° 0 mm 7 mps 726 mmHg 55%
    08:00 +33°C° 0 mm 8 mps 727 mmHg 54%
    09:00 +34°C° 0 mm 8 mps 727 mmHg 52%
    10:00 +35°C° 0 mm 8 mps 727 mmHg 49%
    11:00 +37°C° 0 mm 8 mps 727 mmHg 46%
    12:00 +38°C° 0 mm 7 mps 726 mmHg 42%
    13:00 +39°C° 0 mm 6 mps 725 mmHg 39%
    14:00 +40°C° 0 mm 6 mps 725 mmHg 36%
    15:00 +40°C° 0 mm 4 mps 724 mmHg 34%
    16:00 +39°C° 0 mm 3 mps 724 mmHg 32%
    17:00 +39°C° 0 mm 2 mps 724 mmHg 30%
    18:00 +39°C° 0 mm 2 mps 724 mmHg 32%
    19:00 +38°C° 0 mm 2 mps 725 mmHg 34%
    20:00 +38°C° 0 mm 2 mps 725 mmHg 36%
    21:00 +37°C° 0 mm 4 mps 725 mmHg 39%
    22:00 +36°C° 0 mm 5 mps 725 mmHg 42%
    23:00 +34°C° 0 mm 7 mps 725 mmHg 45%

    27 August, Tuesday

    Time Temperature Precipitation Wind Pressure Humidity
    00:00 +34°C° 0 mm 7 mps 725 mmHg 46%
    01:00 +34°C° 0 mm 7 mps 724 mmHg 47%
    02:00 +33°C° 0 mm 6 mps 724 mmHg 48%
    03:00 +33°C° 0 mm 6 mps 724 mmHg 51%
    04:00 +33°C° 0 mm 6 mps 725 mmHg 54%
    05:00 +32°C° 0 mm 6 mps 725 mmHg 57%
    06:00 +32°C° 0 mm 7 mps 726 mmHg 56%
    07:00 +33°C° 0 mm 7 mps 726 mmHg 54%
    08:00 +33°C° 0 mm 8 mps 727 mmHg 53%
    09:00 +34°C° 0 mm 8 mps 727 mmHg 49%
    10:00 +37°C° 0 mm 8 mps 727 mmHg 44%
    11:00 +38°C° 0 mm 8 mps 727 mmHg 40%
    12:00 +39°C° 0 mm 8 mps 726 mmHg 37%
    13:00 +40°C° 0 mm 7 mps 725 mmHg 35%
    14:00 +40°C° 0 mm 7 mps 725 mmHg 32%
    15:00 +40°C° 0 mm 7 mps 724 mmHg 32%
    16:00 +40°C° 0 mm 6 mps 724 mmHg 31%
    17:00 +40°C° 0 mm 5 mps 724 mmHg 31%
    18:00 +40°C° 0.1 mm 4 mps 724 mmHg 33%
    19:00 +38°C° 0.1 mm 3 mps 725 mmHg 35%
    20:00 +37°C° 0.1 mm 3 mps 725 mmHg 37%
    21:00 +37°C° 0.2 mm 4 mps 725 mmHg 39%
    22:00 +36°C° 0.2 mm 6 mps 725 mmHg 41%
    23:00 +35°C° 0.2 mm 7 mps 725 mmHg 42%
    Show more